Regional Weather Roundup
Issued by NWS

Home | Current Version | Previous Version | Graphics & Text | Print | Product List | Glossary On
Versions: 1 2 3 4 5 6 7 8 9 10 11 12 13 14 15 16 17 18 19 20 21 22 23 24 25 26 27 28 29 30 31 32 33 34 35 36 37 38 39 40 41 42 43 44 45 46 47 48 49 50
000
ASUS43 KBIS 180901
RWRND

NORTH DAKOTA REGIONAL WEATHER ROUNDUP
NATIONAL WEATHER SERVICE BISMARCK ND
400 AM CDT SAT APR 18 2015

NOTE: "FAIR" INDICATES FEW OR NO CLOUDS BELOW 12,000 FEET WITH NO
SIGNIFICANT WEATHER AND/OR OBSTRUCTIONS TO VISIBILITY.


NDZ001>003-009>011-017-181000-
NORTHWEST NORTH DAKOTA

CITY           SKY/WX    TMP DP  RH WIND       PRES   REMARKS
WILLISTON      CLEAR     48  25  40 SE6       30.03F
MINOT          CLEAR     37  26  64 E7        30.09F
MINOT AFB      CLEAR     32  27  82 SE3       30.09F
$$

NDZ018>021-031>035-040>046-181000-
SOUTHWEST NORTH DAKOTA

CITY           SKY/WX    TMP DP  RH WIND       PRES   REMARKS
BISMARCK       CLEAR     35  26  69 E3        30.09F
DICKINSON      CLEAR     42  26  53 SE12      30.02F
GARRISON         N/A     40  29  64 E6        30.08F
HETTINGER ARPT MOCLDY    34  26  72 CALM      30.06S
$$

NDZ004>008-012>016-024-026-027-054-181000-
NORTHEAST NORTH DAKOTA

CITY           SKY/WX    TMP DP  RH WIND       PRES   REMARKS
GRAND FORKS    CLEAR     30  25  81 CALM      30.16S
GRND FRKS AFB  CLEAR     27  23  84 N2        30.16R
DEVILS LAKE    CLEAR     37  28  70 E6        30.13F
$$

NDZ022-023-025-028>030-036>039-047>053-181000-
SOUTHEAST NORTH DAKOTA

CITY           SKY/WX    TMP DP  RH WIND       PRES   REMARKS
FARGO          CLEAR     42  24  49 NE10      30.10F
JAMESTOWN      CLEAR     34  24  67 NE6       30.10F
$$




USA.gov is the U.S. government's official web portal to all federal, state and local government web resources and services.